Weather History for Waterville, ME

Change the Weather History Date:

Saturday, July 5, 2014

  Actual Average Record
Temperature  
Mean Temperature 63 °F -  
Max Temperature 71 °F 80 °F 94 °F (1983)
Min Temperature 55 °F 55 °F 40 °F (1982)
Degree Days  
Heating Degree Days 2    
Growing Degree Days 13 (Base 50)    
Moisture  
Dew Point 53 °F    
Average Humidity 72    
Maximum Humidity 100    
Minimum Humidity 40    
Precipitation  
Precipitation 1.61 in - - ()
Sea Level Pressure  
Sea Level Pressure 29.74 in    
Wind  
Wind Speed 10 mph (WNW)    
Max Wind Speed 23 mph    
Max Gust Speed 33 mph    
Visibility 10 miles    
Events      
Averages and records for this station are not official NWS values.
T = Trace of Precipitation, MM = Missing Value Source: NWS Daily Summary

Daily Weather History Graph

Daily Weather History Graph

Search for Another Location

Airport:

Trip Planner

Search our weather history database for the weather conditions in past years. The results will help you decide how hot, cold, wet, or windy it might be!

Date:

Astronomy

Jul. 05, 2014 Rise Set
Actual Time 5:00 AM EDT 8:26 PM EDT
Civil Twilight 4:23 AM EDT 9:02 PM EDT
Nautical Twilight 3:35 AM EDT 9:50 PM EDT
Astronomical Twilight 2:35 AM EDT 10:50 PM EDT
Moon 1:10 PM EDT (7/5) No Moon Set
Length of Visible Light 16h 38m
Length of Day
15h 26m
First Quarter, 52% of the Moon is Illuminated
Jul 5
First Quarter
Jul 12
Full
Jul 18
Last Quarter
Jul 26
New
Aug 3
First Quarter

Hourly Weather History & Observations

Time (EDT) Temp. Dew Point Humidity Pressure Visibility Wind Dir Wind Speed Gust Speed Precip Events Conditions
12:15 AM 64.4 °F 62.6 °F 94% 29.80 in 9.0 mi North 5.8 mph - 0.03 in   Overcast
12:35 AM 64.4 °F 62.6 °F 94% 29.80 in 8.0 mi NNW 6.9 mph - 0.10 in   Overcast
12:55 AM 62.6 °F 62.6 °F 100% 29.77 in 9.0 mi NNW 11.5 mph - 0.23 in   Overcast
1:15 AM 62.6 °F 60.8 °F 94% 29.76 in 10.0 mi NNW 10.4 mph - 0.08 in   Overcast
1:35 AM 62.6 °F 60.8 °F 94% 29.75 in 10.0 mi North 6.9 mph - 0.14 in   Mostly Cloudy
1:55 AM 62.6 °F 60.8 °F 94% 29.73 in 10.0 mi NNW 11.5 mph 16.1 mph 0.22 in   Overcast
2:15 AM 62.6 °F 60.8 °F 94% 29.71 in 10.0 mi NNW 13.8 mph 21.9 mph 0.09 in   Mostly Cloudy
2:35 AM 62.6 °F 60.8 °F 94% 29.70 in 10.0 mi NNW 12.7 mph 18.4 mph 0.15 in   Overcast
2:55 AM 60.8 °F 60.8 °F 100% 29.70 in 10.0 mi NNW 17.3 mph 23.0 mph 0.22 in   Overcast
3:15 AM 60.8 °F 59.0 °F 94% 29.68 in 10.0 mi NNW 13.8 mph 25.3 mph 0.11 in   Overcast
3:35 AM 60.8 °F 57.2 °F 88% 29.68 in 10.0 mi NNW 15.0 mph 24.2 mph 0.17 in   Overcast
3:55 AM 59.0 °F 55.4 °F 88% 29.68 in 10.0 mi NNW 16.1 mph 24.2 mph 0.22 in   Overcast
4:15 AM 57.2 °F 55.4 °F 94% 29.67 in 10.0 mi North 17.3 mph 20.7 mph 0.05 in   Overcast
4:35 AM 57.2 °F 55.4 °F 94% 29.66 in 10.0 mi North 16.1 mph 23.0 mph 0.08 in   Overcast
4:55 AM 57.2 °F 55.4 °F 94% 29.67 in 10.0 mi NNW 11.5 mph 18.4 mph 0.13 in   Overcast
5:15 AM 57.2 °F 55.4 °F 94% 29.67 in 10.0 mi NNW 10.4 mph 23.0 mph 0.05 in   Overcast
5:35 AM 57.2 °F 55.4 °F 94% 29.68 in 10.0 mi NNW 12.7 mph 19.6 mph 0.10 in   Overcast
5:55 AM 57.2 °F 53.6 °F 88% 29.68 in 10.0 mi NNW 12.7 mph 23.0 mph 0.17 in   Overcast
6:15 AM 55.4 °F 53.6 °F 94% 29.68 in 10.0 mi NNW 13.8 mph 21.9 mph 0.10 in   Overcast
6:35 AM 55.4 °F 53.6 °F 94% 29.68 in 10.0 mi NW 16.1 mph 23.0 mph 0.18 in   Overcast
6:55 AM 55.4 °F 53.6 °F 94% 29.70 in 10.0 mi NNW 17.3 mph 24.2 mph 0.24 in   Overcast
7:15 AM 55.4 °F 51.8 °F 88% 29.72 in 10.0 mi NW 13.8 mph 18.4 mph 0.04 in   Mostly Cloudy
7:35 AM 55.4 °F 51.8 °F 88% 29.72 in 10.0 mi NNW 11.5 mph - 0.08 in   Overcast
7:55 AM 55.4 °F 51.8 °F 88% 29.71 in 10.0 mi NNW 12.7 mph 18.4 mph 0.14 in   Overcast
8:15 AM 55.4 °F 51.8 °F 88% 29.69 in 10.0 mi NNW 11.5 mph 20.7 mph 0.03 in   Overcast
8:35 AM 55.4 °F 51.8 °F 88% 29.71 in 10.0 mi NNW 10.4 mph - 0.04 in   Mostly Cloudy
8:55 AM 55.4 °F 51.8 °F 88% 29.72 in 10.0 mi NW 6.9 mph - 0.04 in   Partly Cloudy
9:15 AM 55.4 °F 51.8 °F 88% 29.72 in 10.0 mi WNW 5.8 mph - N/A   Partly Cloudy
9:35 AM 55.4 °F 51.8 °F 88% 29.73 in 10.0 mi WNW 5.8 mph - N/A   Mostly Cloudy
9:55 AM 55.4 °F 51.8 °F 88% 29.74 in 10.0 mi WNW 6.9 mph - N/A   Mostly Cloudy
10:15 AM 55.4 °F 51.8 °F 88% 29.76 in 10.0 mi WSW 4.6 mph - N/A   Overcast
10:35 AM 57.2 °F 51.8 °F 82% 29.76 in 10.0 mi WSW 5.8 mph - N/A   Mostly Cloudy
10:55 AM 57.2 °F 51.8 °F 82% 29.76 in 10.0 mi West 6.9 mph - N/A   Mostly Cloudy
11:15 AM 57.2 °F 50.0 °F 77% 29.77 in 10.0 mi West 11.5 mph 17.3 mph N/A   Scattered Clouds
11:35 AM 59.0 °F 48.2 °F 67% 29.77 in 10.0 mi West 11.5 mph 17.3 mph N/A   Clear
11:55 AM 60.8 °F 46.4 °F 59% 29.78 in 10.0 mi West 11.5 mph 20.7 mph N/A   Clear
12:15 PM 60.8 °F 48.2 °F 63% 29.78 in 10.0 mi WNW 12.7 mph 20.7 mph N/A   Clear
12:35 PM 62.6 °F 46.4 °F 55% 29.78 in 10.0 mi WNW 12.7 mph 19.6 mph N/A   Clear
12:55 PM 62.6 °F 44.6 °F 52% 29.78 in 10.0 mi West 12.7 mph 21.9 mph N/A   Clear
1:15 PM 64.4 °F 44.6 °F 49% 29.79 in 10.0 mi WNW 12.7 mph 23.0 mph N/A   Clear
1:35 PM 64.4 °F 44.6 °F 49% 29.78 in 10.0 mi WNW 10.4 mph 17.3 mph N/A   Clear
1:55 PM 64.4 °F 44.6 °F 49% 29.77 in 10.0 mi West 8.1 mph 17.3 mph N/A   Clear
2:15 PM 66.2 °F 46.4 °F 49% 29.77 in 10.0 mi West 10.4 mph 17.3 mph N/A   Clear
2:35 PM 66.2 °F 46.4 °F 49% 29.76 in 10.0 mi West 10.4 mph - N/A   Clear
2:55 PM 66.2 °F 46.4 °F 49% 29.76 in 10.0 mi WNW 9.2 mph 16.1 mph N/A   Clear
3:15 PM 69.8 °F 46.4 °F 43% 29.75 in 10.0 mi WNW 18.4 mph 29.9 mph N/A   Clear
3:35 PM 69.8 °F 44.6 °F 40% 29.76 in 10.0 mi WNW 19.6 mph 33.4 mph N/A   Clear
4:15 PM 69.8 °F 46.4 °F 43% 29.76 in 10.0 mi West 23.0 mph 28.8 mph N/A   Scattered Clouds
4:35 PM 69.8 °F 46.4 °F 43% 29.76 in 10.0 mi WNW 18.4 mph 28.8 mph N/A   Partly Cloudy
4:55 PM 69.8 °F 46.4 °F 43% 29.75 in 10.0 mi WNW 11.5 mph 24.2 mph N/A   Partly Cloudy
5:15 PM 71.6 °F 48.2 °F 43% 29.75 in 10.0 mi West 11.5 mph 25.3 mph N/A   Clear
5:35 PM 69.8 °F 48.2 °F 46% 29.74 in 10.0 mi West 6.9 mph - N/A   Clear
5:55 PM 69.8 °F 50.0 °F 49% 29.74 in 10.0 mi West 5.8 mph - N/A   Clear
6:15 PM 69.8 °F 51.8 °F 53% 29.74 in 10.0 mi West 5.8 mph - N/A   Clear
6:35 PM 69.8 °F 51.8 °F 53% 29.74 in 10.0 mi West 5.8 mph - N/A   Clear
6:55 PM 69.8 °F 51.8 °F 53% 29.74 in 10.0 mi West 4.6 mph - N/A   Clear
7:15 PM 69.8 °F 53.6 °F 56% 29.74 in 10.0 mi West 6.9 mph - N/A   Clear
7:35 PM 69.8 °F 53.6 °F 56% 29.74 in 10.0 mi West 6.9 mph - N/A   Clear
7:55 PM 69.8 °F 53.6 °F 56% 29.74 in 10.0 mi WSW 5.8 mph - N/A   Clear
8:15 PM 66.2 °F 55.4 °F 68% 29.75 in 10.0 mi SW 5.8 mph - N/A   Clear
8:35 PM 64.4 °F 55.4 °F 73% 29.75 in 10.0 mi WSW 5.8 mph - N/A   Clear
8:55 PM 64.4 °F 53.6 °F 68% 29.75 in 10.0 mi WSW 5.8 mph - N/A   Clear
9:15 PM 64.4 °F 55.4 °F 73% 29.75 in 10.0 mi WSW 5.8 mph - N/A   Clear
9:35 PM 64.4 °F 55.4 °F 73% 29.76 in 10.0 mi SW 5.8 mph - N/A   Clear
9:55 PM 68.0 °F 55.4 °F 64% 29.76 in 10.0 mi West 8.1 mph - N/A   Clear
10:15 PM 71.6 °F 53.6 °F 53% 29.76 in 10.0 mi WNW 16.1 mph 23.0 mph N/A   Clear
10:35 PM 71.6 °F 53.6 °F 53% 29.77 in 10.0 mi West 8.1 mph 21.9 mph N/A   Clear
10:55 PM 71.6 °F 53.6 °F 53% 29.77 in 10.0 mi West 12.7 mph - N/A   Clear
11:15 PM 69.8 °F 53.6 °F 56% 29.77 in 10.0 mi West 6.9 mph - N/A   Clear
11:35 PM 69.8 °F 53.6 °F 56% 29.77 in 10.0 mi West 10.4 mph - N/A   Clear
11:55 PM 69.8 °F 53.6 °F 56% 29.77 in 10.0 mi West 10.4 mph - N/A   Clear